This is the latest recevied weather packets stored in our database for station/object AD8BW. If no packets are shown the sender has not sent any weather packets the latest 10 day(s).
| Time | Temp. | Humidity | Pressure | Rain* | Wind** | Luminosity | Snow |
|---|---|---|---|---|---|---|---|
| 1777610328 | 5° C | 81% | 1013.3 hPa | 0 mm | - | 0 W/m² | - |
| 1777609731 | 5° C | 82% | 1013.4 hPa | 0 mm | - | 0 W/m² | - |
| 1777609131 | 5° C | 83% | 1013.4 hPa | 0 mm | - | 0 W/m² | - |
| 1777608529 | 5° C | 84% | 1013.5 hPa | 0 mm | - | 0 W/m² | - |
| 1777607929 | 5° C | 84% | 1013.5 hPa | 0 mm | - | 0 W/m² | - |
| 1777607332 | 5° C | 84% | 1013.5 hPa | 0 mm | - | 0 W/m² | - |
| 1777606730 | 5° C | 83% | 1013.6 hPa | 0 mm | - | 0 W/m² | - |
| 1777606131 | 5.56° C | 83% | 1013.6 hPa | 0 mm | - | 0 W/m² | - |
| 1777605528 | 5.56° C | 82% | 1013.7 hPa | 0 mm | - | 0 W/m² | - |
| 1777604928 | 5.56° C | 83% | 1013.8 hPa | 0 mm | - | 0 W/m² | - |
| 1777604327 | 5.56° C | 82% | 1013.6 hPa | 0 mm | - | 0 W/m² | - |
| 1777603727 | 6.11° C | 81% | 1013.6 hPa | 0 mm | - | 0 W/m² | - |
| 1777603126 | 6.11° C | 81% | 1013.5 hPa | 0 mm | - | 0 W/m² | - |
| 1777602525 | 6.11° C | 81% | 1013.6 hPa | 0 mm | - | 0 W/m² | - |
| 1777601921 | 6.11° C | 81% | 1013.4 hPa | 0 mm | - | 0 W/m² | - |
| 1777601322 | 6.11° C | 80% | 1013.2 hPa | 0 mm | - | 0 W/m² | - |
| 1777600724 | 6.67° C | 79% | 1013.3 hPa | 0 mm | - | 0 W/m² | - |
| 1777600124 | 6.67° C | 78% | 1013.2 hPa | 0 mm | - | 0 W/m² | - |
| 1777599521 | 6.67° C | 77% | 1012.9 hPa | 0 mm | - | 0 W/m² | - |
| 1777598923 | 7.22° C | 73% | 1013 hPa | 0 mm | - | 0 W/m² | - |
| 1777598322 | 7.22° C | 65% | 1012.9 hPa | 0 mm | - | 0 W/m² | - |
| 1777597718 | 7.22° C | 59% | 1012.8 hPa | 0 mm | - | 0 W/m² | - |
| 1777597121 | 7.78° C | 58% | 1012.7 hPa | 0 mm | - | 0 W/m² | - |
| 1777596521 | 8.33° C | 57% | 1012.7 hPa | 0 mm | - | 0 W/m² | - |
| 1777595919 | 8.33° C | 54% | 1012.6 hPa | 0 mm | - | 0 W/m² | - |
* Rain latest hour (hover to see other rain measurements)
** Current wind speed in m/s (hover to see current wind gust speed)